sat.trackr.live / text

‹ back to catalog

STARLINK-32425

NORAD 61216 · 2024-171S

PAYLOAD ACTIVE UNKNOWN

§ Identity

Operator
Country
US
Launch date
2024-09-20
Launch site
AFWTR
Launch vehicle
Mass (kg)
RCS (m²)

Purposes: comms

External: N2YO · Heavens-Above · Gunter

§ Orbital elements

Epoch: 2026-05-24T21:20:53.892096Z

Period
94.10 min
Inclination
53.1604°
Eccentricity
0.0000757
Mean motion
15.30321766 rev/d
Perigee alt
474.3 km
Apogee alt
475.4 km
Semi-major
6,853.0 km
B*
6.1625e-4
RAAN
328.6035°
Arg perigee
58.3001°
Mean anomaly
301.8073°
Rev number
9,403

§ Raw data

STARLINK-324251 61216U 24171S   26144.88951264  .00018005  00000+0  61625-3 0  99972 61216  53.1604 328.6035 0000757  58.3001 301.8073 15.30321766 94032

JSON: /api/v1/satellites/61216 · /tle

For live sub-satellite position, see the globe view (requires WebGL).

§ Visibility from observer

Set your observer location to see the next 7 days of passes ≥ 10°. The values pass through the URL so the page stays shareable.

No JS? Fill the form by hand. The geolocation button needs JavaScript.